Regional Weather Roundup
Issued by NWS Newport/Morehead, NC

Current Version | Previous Version | Graphics & Text | Print | Product List | Glossary On
Versions: 1 2 3 4 5 6 7 8 9 10 11 12 13 14 15 16 17 18 19 20 21 22 23 24 25 26 27 28 29 30 31 32 33 34 35 36 37 38 39 40 41 42 43 44 45 46 47 48 49 50
000 ASUS42 KMHX 222013 RWRMHX WEATHER ROUNDUP FOR EASTERN NORTH CAROLINA NATIONAL WEATHER SERVICE NEWPORT/MOREHEAD CITY NC 400 PM EDT THU JUN 22 2017 NOTE: "FAIR" INDICATES FEW OR NO CLOUDS BELOW 12,000 FEET WITH NO SIGNIFICANT WEATHER AND/OR OBSTRUCTIONS TO VISIBILITY NCZ015>017-031-032-045>047-102-103-222100- NORTH COAST CITY SKY/WX TMP DP RH WIND PRES REMARKS EDENTON CLOUDY 88 74 64 CALM 30.04F ELIZABETH CITY CLOUDY 87 74 64 SW12 30.02F KITTY HAWK MOCLDY 86 72 62 CALM 30.02F MANTEO PTSUNNY 87 71 58 W5 30.03F $$ NCZ045>047-081-094-103-104-222100- CENTRAL COAST CITY SKY/WX TMP DP RH WIND PRES REMARKS FRISCO MOSUNNY 84 76 76 SW9 30.06F $$ NCZ095-097-098-100-101-222100- SOUTHERN COAST CITY SKY/WX TMP DP RH WIND PRES REMARKS BEAUFORT CLOUDY 82 78 88 W10 30.07F CEDAR ISLAND NOT AVBL JACKSONVILLE CLOUDY 85 77 77 W6 30.07F PINEY ISLAND CLOUDY N/A N/A N/A S8 30.06F WILMINGTON PTSUNNY 82 75 79 SW6 30.08F $$ NCZ011>013-027>030-043-044-078>080-089-090>093-098-222100- COASTAL PLAIN CITY SKY/WX TMP DP RH WIND PRES REMARKS AHOSKIE N/A 84 76 76 CALM 30.04S CLINTON RAIN 81 78 90 W5 30.10S ELIZABETHTOWN NOT AVBL GOLDSBORO CLOUDY 83 80 91 W12 30.06F GREENVILLE CLOUDY 82 73 74 W9 30.08F HAVELOCK CLOUDY 84 76 76 SW5 30.08S KENANSVILLE CLOUDY 82 73 74 W3 30.09F KINSTON CLOUDY 82 77 83 SW6 30.08F NEW BERN LGT RAIN 82 76 81 W6 30.09S RICHLANDS CLOUDY 84 76 76 W5 30.08F ROCKY MOUNT PTSUNNY 83 73 72 SW9 30.06F WASHINGTON CLOUDY 84 75 74 W8 30.06F WHITEVILLE MOSUNNY 85 74 68 SE8 30.08S $$ AMZ130-135-150-152-154-156-158-170-250-252-270-ANZ085-086-088-633-658-670-222100- MARINE OBSERVATIONS STATION/POSITION TIME TEMP WIND PRES WAVE SWELL AIR SEA DIR/SP/G HT/PER HT/PER (UTC) (F) (DEG/KT/KT) (MB) (FT/S) (FT/S) CHESAPEAKE LIGHT NOT AVBL 64 E VA BEACH 1950 73 73 210/ 8/ 10 1017.3 2/ 7 2/ 7 DUCK 1942 85 62 250/ 10/ 11 1016.5 2 E DUCK NOT AVBL OREGON INLET 1942 81 82 190/ 16/ 18 1016.9 13E OREGON INLT 1948 73 N/A 2/ 7 2/ 7 HATTERAS CG 1942 82 79 220/ 11/ 16 1017.8 DIAMOND BUOY 1950 80 80 230/ 12/ 14 1017.9 2/10 2/10 CAPE LOOKOUT 2000 81 220/ 8/ 11 1018.0 BEAUFORT LAB 1942 81 79 230/ 4/ 8 1017.8 30 SE NEW RVR IN 1908 80 81 230/ 10/ 12 1019.0 30 SE NEW RVR IN 1943 81 N/A 3/ 7 27 SE WRIGHTSVLE 1908 79 80 250/ 6/ 10 1018.6 5 SE WRIGHTSVLE 1908 79 79 280/ 4/ 8 1018.7 225 S CAPE HAT 1950 81 83 220/ 10/ 12 1020.1 5/ 8 5/ 8 41 SE CHARLESTON 1950 82 82 190/ 8/ 10 1018.5 3/ 8 3/ 8 $$

USA.gov is the U.S. government's official web portal to all federal, state and local government web resources and services.